User: anonymous   Login
Location: Unspecified
(53.6186°N, 1.3184°W)
Time: 13:56:59
(UTC+01:00)
Language:

ISS - Orbit

View from above orbital plane
View from above orbital plane
View from above satellite
View from above satellite

Ground track
Ground track

The orbit data is extracted from the following two-line orbital elements,

1 25544U 98067A   17234.52282373  .00016717  00000-0  10270-3 0  9062
2 25544  51.6379  67.6345 0004882 169.0676 191.0584 15.54177169 32066
Epoch (UTC): 22 August 2017 12:32:51
Eccentricity: 0.0004882
inclination: 51.6379°
perigee height: 401 km
apogee height: 408 km
right ascension of ascending node: 67.6345°
argument of perigee: 169.0676°
revolutions per day: 15.54177169
mean anomaly at epoch: 191.0584°
orbit number at epoch: 3206

The dashed part of the orbit path shows where the satellite is in the earth's shadow,  

DLR